Location: Noyers
(47.2770°N, 1.4032°E)
Time: 22:46:11
(UTC+00:00)

BREEZE-M DEB (TANK) - Pass Details

Date: 15 May 2026
Orbit: 262 x 12018 km, 49.5° (Epoch: 6 June)

Event Time Altitude Azimuth Distance (km) Brightness Sun altitude
Rises 21:13:41 0° 267° (W) 3,190 6.7 -14.9°
Reaches altitude 10° 21:16:51 10° 272° (W) 1,589 5.2 -15.2°
Maximum altitude 21:19:42 52° 350° (N) 383 1.9 -15.5°
Enters shadow 21:20:43 24° 60° (ENE) 633 2.6 -15.6°
